When you browse on this site, cookies collect data to enhance your experience and personalize the content and advertising you see.
Visit our Privacy Policy to learn more. By continuing to use the site, you agree to this use of cookies and data.
  • In Lithuania
  • List of Countries
  • For 7 days
  • Water Temperature
  • Satellite Maps
  • Weather Map
  • Weather Widgets
  • user-avatar
    Login

    Hourly Weather La Massana

    Today, 18 December, Tuesday

    Time Temperature Precipitation Wind Pressure Humidity
    00:00 -2°C° 0 mm 1 mps 613 mmHg 70%
    01:00 -2°C° 0 mm 1 mps 613 mmHg 69%
    02:00 -3°C° 0 mm 1 mps 612 mmHg 69%
    03:00 -3°C° 0 mm 1 mps 612 mmHg 68%
    04:00 -3°C° 0 mm 1 mps 612 mmHg 66%
    05:00 -5°C° 0 mm 2 mps 611 mmHg 64%
    06:00 -5°C° 0 mm 2 mps 611 mmHg 61%
    07:00 -3°C° 0 mm 2 mps 611 mmHg 58%
    08:00 -2°C° 0 mm 2 mps 612 mmHg 55%
    09:00 -1°C° 0 mm 2 mps 612 mmHg 52%
    10:00 +1°C° 0 mm 2 mps 612 mmHg 50%
    11:00 +3°C° 0 mm 2 mps 613 mmHg 48%
    12:00 +3°C° 0 mm 3 mps 613 mmHg 46%
    13:00 +3°C° 0 mm 3 mps 612 mmHg 48%
    14:00 +3°C° 0 mm 2 mps 612 mmHg 50%
    15:00 +3°C° 0 mm 2 mps 611 mmHg 52%
    16:00 +1°C° 0 mm 2 mps 611 mmHg 53%
    17:00 -1°C° 0 mm 2 mps 610 mmHg 54%
    18:00 -3°C° 0 mm 2 mps 609 mmHg 54%
    19:00 -3°C° 0 mm 2 mps 609 mmHg 55%
    20:00 -3°C° 0 mm 2 mps 609 mmHg 55%
    21:00 -3°C° 0 mm 2 mps 609 mmHg 55%
    22:00 0°C° 0 mm 1 mps 609 mmHg 57%
    23:00 0°C° 0 mm 1 mps 609 mmHg 59%

    Tomorrow, 19 December, Wednesday

    Time Temperature Precipitation Wind Pressure Humidity
    00:00 0°C° 0 mm 1 mps 610 mmHg 61%
    01:00 0°C° 0 mm 1 mps 609 mmHg 64%
    02:00 0°C° 0 mm 1 mps 609 mmHg 67%
    03:00 0°C° 0 mm 1 mps 609 mmHg 70%
    04:00 0°C° 0.1 mm 1 mps 609 mmHg 72%
    05:00 -1°C° 0.1 mm 1 mps 609 mmHg 75%
    06:00 -1°C° 0.1 mm 1 mps 608 mmHg 78%
    07:00 0°C° 0 mm 1 mps 609 mmHg 78%
    08:00 0°C° 0 mm 1 mps 609 mmHg 78%
    09:00 +1°C° 0 mm 1 mps 610 mmHg 78%
    10:00 +2°C° 0 mm 1 mps 610 mmHg 73%
    11:00 +2°C° 0 mm 2 mps 610 mmHg 68%
    12:00 +2°C° 0 mm 2 mps 610 mmHg 63%
    13:00 +2°C° 0.2 mm 2 mps 610 mmHg 66%
    14:00 +2°C° 0.2 mm 2 mps 610 mmHg 69%
    15:00 +1°C° 0.2 mm 2 mps 610 mmHg 72%
    16:00 -1°C° 0 mm 2 mps 610 mmHg 77%
    17:00 -2°C° 0 mm 2 mps 610 mmHg 81%
    18:00 -4°C° 0 mm 2 mps 610 mmHg 86%
    19:00 -4°C° 0 mm 2 mps 610 mmHg 85%
    20:00 -5°C° 0 mm 2 mps 610 mmHg 84%
    21:00 -5°C° 0 mm 2 mps 610 mmHg 83%
    22:00 -5°C° 0 mm 2 mps 610 mmHg 81%
    23:00 -3°C° 0 mm 1 mps 611 mmHg 79%

    Day after tomorrow, 20 December, Thursday

    Time Temperature Precipitation Wind Pressure Humidity
    00:00 -3°C° 0 mm 1 mps 611 mmHg 77%
    01:00 -3°C° 0 mm 1 mps 611 mmHg 76%
    02:00 -3°C° 0 mm 1 mps 611 mmHg 75%
    03:00 -3°C° 0 mm 1 mps 611 mmHg 75%
    04:00 -3°C° 0 mm 1 mps 611 mmHg 76%
    05:00 -3°C° 0 mm 1 mps 611 mmHg 77%
    06:00 -3°C° 0 mm 1 mps 612 mmHg 77%
    07:00 -2°C° 0 mm 1 mps 612 mmHg 75%
    08:00 -2°C° 0 mm 1 mps 613 mmHg 73%
    09:00 -1°C° 0 mm 1 mps 614 mmHg 70%
    10:00 0°C° 0 mm 1 mps 614 mmHg 64%
    11:00 +2°C° 0 mm 1 mps 615 mmHg 57%
    12:00 +3°C° 0 mm 1 mps 615 mmHg 51%
    13:00 +3°C° 0 mm 1 mps 615 mmHg 54%
    14:00 +3°C° 0 mm 1 mps 615 mmHg 57%
    15:00 +2°C° 0 mm 1 mps 615 mmHg 60%
    16:00 +1°C° 0 mm 1 mps 614 mmHg 65%
    17:00 -1°C° 0 mm 1 mps 614 mmHg 71%
    18:00 -2°C° 0 mm 1 mps 614 mmHg 76%
    19:00 -2°C° 0 mm 1 mps 614 mmHg 75%
    20:00 -2°C° 0 mm 1 mps 614 mmHg 73%
    21:00 -3°C° 0 mm 1 mps 615 mmHg 71%
    22:00 -3°C° 0 mm 1 mps 615 mmHg 71%
    23:00 -3°C° 0 mm 1 mps 615 mmHg 71%

    21 December, Friday

    Time Temperature Precipitation Wind Pressure Humidity
    00:00 -3°C° 0 mm 1 mps 614 mmHg 71%
    01:00 -3°C° 0 mm 1 mps 614 mmHg 72%
    02:00 -3°C° 0 mm 1 mps 614 mmHg 73%
    03:00 -3°C° 0 mm 1 mps 614 mmHg 74%
    04:00 -3°C° 0 mm 1 mps 614 mmHg 74%
    05:00 -2°C° 0 mm 1 mps 614 mmHg 74%
    06:00 -2°C° 0 mm 1 mps 614 mmHg 74%
    07:00 -1°C° 0 mm 1 mps 615 mmHg 70%
    08:00 0°C° 0 mm 1 mps 615 mmHg 66%
    09:00 +1°C° 0 mm 1 mps 616 mmHg 62%
    10:00 +3°C° 0 mm 1 mps 616 mmHg 58%
    11:00 +5°C° 0 mm 1 mps 617 mmHg 54%
    12:00 +7°C° 0 mm 1 mps 618 mmHg 51%
    13:00 +6°C° 0 mm 1 mps 617 mmHg 55%
    14:00 +6°C° 0 mm 1 mps 617 mmHg 59%
    15:00 +4°C° 0 mm 0 mps 616 mmHg 63%
    16:00 +4°C° 0 mm 1 mps 616 mmHg 64%
    17:00 +3°C° 0 mm 1 mps 616 mmHg 65%
    18:00 +1°C° 0 mm 1 mps 616 mmHg 66%
    19:00 +1°C° 0 mm 1 mps 616 mmHg 65%
    20:00 +1°C° 0 mm 1 mps 616 mmHg 63%
    21:00 +1°C° 0 mm 1 mps 616 mmHg 61%
    22:00 +1°C° 0 mm 1 mps 615 mmHg 60%
    23:00 +1°C° 0 mm 1 mps 615 mmHg 59%

    22 December, Saturday

    Time Temperature Precipitation Wind Pressure Humidity
    00:00 +1°C° 0 mm 1 mps 615 mmHg 58%
    01:00 +1°C° 0 mm 1 mps 615 mmHg 56%
    02:00 +1°C° 0 mm 1 mps 615 mmHg 55%
    03:00 +1°C° 0 mm 1 mps 615 mmHg 53%
    04:00 +1°C° 0 mm 1 mps 615 mmHg 54%
    05:00 +1°C° 0 mm 2 mps 615 mmHg 54%
    06:00 +1°C° 0 mm 2 mps 615 mmHg 55%
    07:00 +2°C° 0 mm 2 mps 616 mmHg 58%
    08:00 +4°C° 0 mm 1 mps 616 mmHg 61%
    09:00 +5°C° 0 mm 1 mps 617 mmHg 64%
    10:00 +6°C° 0 mm 1 mps 618 mmHg 63%
    11:00 +8°C° 0 mm 1 mps 618 mmHg 62%
    12:00 +10°C° 0 mm 1 mps 619 mmHg 61%
    13:00 +8°C° 0 mm 0 mps 618 mmHg 64%
    14:00 +7°C° 0 mm 0 mps 618 mmHg 68%
    15:00 +7°C° 0 mm 0 mps 617 mmHg 71%
    16:00 +5°C° 0 mm 0 mps 617 mmHg 75%
    17:00 +5°C° 0 mm 1 mps 617 mmHg 79%
    18:00 +3°C° 0 mm 1 mps 616 mmHg 83%
    19:00 +3°C° 0 mm 1 mps 616 mmHg 82%
    20:00 +3°C° 0 mm 1 mps 617 mmHg 82%
    21:00 +3°C° 0 mm 1 mps 617 mmHg 82%
    22:00 +2°C° 0 mm 1 mps 616 mmHg 79%
    23:00 +2°C° 0 mm 1 mps 616 mmHg 76%

    23 December, Sunday

    Time Temperature Precipitation Wind Pressure Humidity
    00:00 +2°C° 0 mm 1 mps 616 mmHg 73%
    01:00 +2°C° 0 mm 1 mps 616 mmHg 71%
    02:00 +2°C° 0 mm 1 mps 616 mmHg 70%
    03:00 +2°C° 0 mm 1 mps 615 mmHg 69%
    04:00 +2°C° 0 mm 1 mps 615 mmHg 70%
    05:00 +2°C° 0 mm 1 mps 615 mmHg 70%
    06:00 +2°C° 0 mm 1 mps 615 mmHg 70%
    07:00 +3°C° 0 mm 1 mps 615 mmHg 67%
    08:00 +4°C° 0 mm 1 mps 616 mmHg 65%
    09:00 +5°C° 0 mm 1 mps 616 mmHg 62%
    10:00 +6°C° 0 mm 1 mps 617 mmHg 59%
    11:00 +8°C° 0 mm 1 mps 617 mmHg 55%
    12:00 +10°C° 0 mm 1 mps 618 mmHg 52%
    13:00 +9°C° 0 mm 1 mps 617 mmHg 55%
    14:00 +9°C° 0 mm 1 mps 617 mmHg 58%
    15:00 +8°C° 0 mm 1 mps 617 mmHg 61%
    16:00 +7°C° 0 mm 1 mps 616 mmHg 63%
    17:00 +5°C° 0 mm 1 mps 615 mmHg 65%
    18:00 +4°C° 0 mm 1 mps 615 mmHg 67%
    19:00 +3°C° 0 mm 1 mps 615 mmHg 62%
    20:00 +3°C° 0 mm 1 mps 615 mmHg 58%
    21:00 +3°C° 0 mm 1 mps 615 mmHg 53%
    22:00 +3°C° 0 mm 1 mps 615 mmHg 50%
    23:00 +3°C° 0 mm 1 mps 615 mmHg 46%
    Show more